Weather in Buzdyak

Russia / Republic of Bashkortostan     54°34′13″N   54°32′02″E
temp.,
°C
wind,
m/s
gust,
m/s
humid.,
%
clouds,
%
prec.,
mm/h
press.,
hPa
HPBL,
m
28 february, sun
sun2823:00−5sse61095100 2.3 999295
02:00−5se4796100 0.8 999198
05:00−5se3497100 1.5 999128
08:00−6ne2397100 0.8 99961
11:00−8n459698 1.2 1000209
14:00−8n469499 0.2 1001342
17:00−9nnw579399 0.3 1003395
20:00−11nw489497 0.1 1006264
1 march, mon
mon123:00−13nw489689 0.1 1009157
02:00−14nw479699 0.1 1011172
05:00−15nw479599 0.2 1013232
08:00−16nw469691 0.1 1014182
11:00−16wnw459591 0.2 1017254
14:00−15wnw459499 0.0 1017274
17:00−16wnw469598 0.1 1019290
20:00−20w339975 0.0 101933
2 march, tue
tue223:00−21wsw339747 0.0 102022
02:00−22sw33970 0.0 101923
05:00−22sw34952 0.0 101862
08:00−21ssw489427 0.0 1015157
11:00−15ssw5129264 0.0 1013357
14:00−12ssw61291100 0.1 1009450
17:00−11ssw71391100 0.5 1007592
20:00−10ssw51493100 0.8 1004619
3 march, wed
wed323:00−7s61493100 1.5 1002607
02:00−5ssw41293100 0.6 999536
05:00−5ssw41294100 0.8 998395
08:00−6sw499385 0.1 997203
11:00−3wsw599386 0.2 998575
14:00−4wnw6992100 0.1 999587
17:00−5wnw5891100 0.2 1000539
20:00−5nw5993100 0.1 1001512
4 march, thu
thu423:00−7wnw4995100 0.1 1004261
02:00−7wnw499585 0.1 1004251
05:00−8wnw489592 0.3 1006241
08:00−13wnw479782 0.1 1008135
11:00−11wnw599481 0.1 1010318
14:00−8w599072 0.0 1010488
17:00−6wsw6108872 0.0 1010746
20:00−8sw71489100 0.0 1009494